Regional Weather Roundup
Issued by NWS

Home | Current Version | Previous Version | Graphics & Text | Print | Product List | Glossary On
Versions: 1 2 3 4 5 6 7 8 9 10 11 12 13 14 15 16 17 18 19 20 21 22 23 24 25 26 27 28 29 30 31 32 33 34 35 36 37 38 39 40 41 42 43 44 45 46 47 48 49 50
000
ASUS43 KIND 011409
RWRIN

WEATHER ROUNDUP FOR INDIANA
NATIONAL WEATHER SERVICE INDIANAPOLIS IN
1000 AM EDT WED OCT 01 2014

NOTE: "FAIR" INDICATES FEW OR NO CLOUDS BELOW 12,000 FEET WITH NO
SIGNIFICANT WEATHER AND/OR OBSTRUCTIONS TO VISIBILITY.

* - STATION DOES NOT REPORT WEATHER SUCH AS PRECIPITATION OR FOG.

+ - STATION NOT QUALITY CONTROLLED BY THE NATIONAL WEATHER SERVICE.
    USE DATA WITH CAUTION...ESPECIALLY DEWPOINT AND RELATIVE
    HUMIDITY OBSERVATIONS.

INZ001>003-010>013-019-020-011500-
NORTHWEST INDIANA

CITY           SKY/WX    TMP DP  RH WIND       PRES   REMARKS
GARY /AIRPORT/ MOSUNNY   55  50  82 SE8       30.04R
KNOX *+        SUNNY     52  49  88 SE6       30.03S
LA PORTE +     SUNNY     56  51  85 SE8       30.05R
MICHIGAN CITY+ MOSUNNY   55  46  71 SE5       30.04S
MONTICELLO +   CLOUDY    49  49  99 E5        30.03R FOG
RENSSELAER +   SUNNY     52  52 100 E9        30.03S
VALPARAISO     SUNNY     53  49  86 SE12      30.04R

$$

LMZ046-743>745-011500-
SOUTHERN LAKE MICHIGAN

STATION/POSITION TIME  TEMP WIND        PRES
                       AIR  DIR/SP/G
                 (UTC) (F)  (DEG/KT/KT) (MB)

$$

INZ004-005-014>016-021>024-011500-
NORTH CENTRAL INDIANA

CITY           SKY/WX    TMP DP  RH WIND       PRES   REMARKS
ELKHART        CLOUDY    55  48  76 SE7       30.06R
GOSHEN         CLOUDY    54  49  83 E6        30.05
LOGANSPORT +   CLOUDY    50  48  93 E8        30.05R FOG
PERU/GRISSOM   CLOUDY    50  50 100 E7        30.04R FOG
ROCHESTER +    CLOUDY    54  54 100 SE7       30.05S FOG
SOUTH BEND     CLOUDY    55  48  76 SE10      30.06R
WARSAW +       CLOUDY    52  50  93 E6        30.05S

$$

INZ006>009-017-018-025>027-011500-
NORTHEAST INDIANA

CITY           SKY/WX    TMP DP  RH WIND       PRES   REMARKS
ANGOLA *+      SUNNY     54  48  82 S5        30.06R
AUBURN +       SUNNY     50  50 100 CALM      30.07R
FORT WAYNE     PTSUNNY   53  50  89 SE3       30.07R
HUNTINGTON +   CLOUDY    50  50  99 E6        30.05R FOG

$$

INZ028-029-035-036-043>045-051>053-011500-
WEST CENTRAL INDIANA

CITY           SKY/WX    TMP DP  RH WIND       PRES   REMARKS
CRAWFORDSVL +    N/A     55  48  76 SE7       30.02R
GREENCASTLE +  SUNNY     54  50  87 SE6       30.02R
LAFAYETTE      SUNNY     53  49  86 E7        30.02R
TERRE HAUTE    SUNNY     58  52  80 SE6       30.00R

$$

INZ030>032-037>040-046>048-054>057-064-065-011500-
CENTRAL INDIANA

CITY           SKY/WX    TMP DP  RH WIND       PRES   REMARKS
CP ATTERBURY + SUNNY     55  50  82 E6        30.04R
FRANKFORT +    SUNNY     54  54 100 E7        30.03S
INDIANAPOLIS   MOSUNNY   55  49  80 E9        30.02S
-EAGLE CREEK   SUNNY     55  49  80 E6        30.02S
KOKOMO *+      CLOUDY    50  46  87 E8        30.05R VSB 1/4
MARION +       CLOUDY    50  50  99 SE8       30.05R FOG
MT COMFORT *+  SUNNY     55  52  88 SE5       30.04R
SHELBYVILLE    SUNNY     56  50  80 E6        30.03R
ZIONSVILLE +   SUNNY     53  50  89 SE7       30.04R

$$

INZ033-034-041-042-049-050-058-059-011500-
EAST CENTRAL INDIANA

CITY           SKY/WX    TMP DP  RH WIND       PRES   REMARKS
MUNCIE         FOG       50  50 100 SE8       30.05R VSB 1

$$

INZ060-061-067>069-081>083-085>088-011500-
SOUTHWEST INDIANA

CITY           SKY/WX    TMP DP  RH WIND       PRES   REMARKS
EVANSVILLE     PTSUNNY   65  60  84 E3        29.98R HAZE
WASHINGTON +   SUNNY     61  58  88 SE5       29.99R

$$

INZ062-063-066-070>080-084-089>092-011500-
SOUTH CENTRAL AND SOUTHEAST INDIANA

CITY           SKY/WX    TMP DP  RH WIND       PRES   REMARKS
BEDFORD +      SUNNY     59  52  77 E6        30.02R
BLOOMINGTON    SUNNY     58  52  80 SE8       30.01R
NORTH VERNON + SUNNY     59  57  94 CALM      30.04R
SEYMOUR +      SUNNY     59  52  77 E5        30.03

$$



USA.gov is the U.S. government's official web portal to all federal, state and local government web resources and services.